Location: Boiro
(42.6475°N, 8.8834°W)
Time: 02:58:50
(UTC+01:00)

SR - Pass Details

Date: 02 December 2021
Orbit: 582 x 872 km, 66.7° (Epoch: 21 January)

Event Time Altitude Azimuth Distance (km) Brightness Sun altitude
Rises 23:43:06 0° 159° (SSE) 3,023 - -60.4°
Reaches altitude 10° 23:46:50 10° 130° (SE) 2,047 - -61.0°
Maximum altitude 23:48:39 12° 107° (ESE) 1,875 - -61.2°
Drops below altitude 10° 23:50:25 10° 83° (E) 1,995 - -61.5°
Sets 23:53:56 0° 53° (NE) 2,860 - -62.0°
